This is the latest recevied weather packets stored in our database for station/object KB1JL-13. If no packets are shown the sender has not sent any weather packets the latest 10 day(s).
| Time | Temp. | Humidity | Pressure | Rain* | Wind** | Luminosity | Snow |
|---|---|---|---|---|---|---|---|
| 1777834140 | 12.22° C | 44% | 1020.9 hPa | 0 mm | - | 245 W/m² | - |
| 1777833836 | 12.78° C | 42% | 1020.5 hPa | 0 mm | - | 194 W/m² | - |
| 1777833533 | 12.78° C | 40% | 1020.5 hPa | 0 mm | - | 333 W/m² | - |
| 1777833230 | 12.22° C | 42% | 1020.5 hPa | 0 mm | - | 228 W/m² | - |
| 1777832927 | 12.22° C | 40% | 1020.9 hPa | 0 mm | - | 364 W/m² | - |
| 1777832626 | 11.67° C | 41% | 1020.5 hPa | 0 mm | - | 199 W/m² | - |
| 1777832322 | 12.22° C | 43% | 1020.5 hPa | 0 mm | - | 226 W/m² | - |
| 1777832020 | 12.22° C | 42% | 1020.9 hPa | 0 mm | - | 225 W/m² | - |
| 1777831716 | 11.67° C | 44% | 1020.5 hPa | 0 mm | - | 298 W/m² | - |
| 1777831414 | 11.67° C | 43% | 1020.9 hPa | 0 mm | - | 267 W/m² | - |
| 1777831110 | 12.22° C | 46% | 1020.9 hPa | 0 mm | - | 324 W/m² | - |
| 1777830809 | 11.67° C | 48% | 1020.9 hPa | 0 mm | - | 839 W/m² | - |
| 1777830504 | 11.11° C | 47% | 1020.9 hPa | 0 mm | - | 321 W/m² | - |
| 1777830202 | 11.11° C | 48% | 1020.9 hPa | 0 mm | - | 324 W/m² | - |
| 1777829897 | 11.67° C | 46% | 1020.9 hPa | 0 mm | - | 246 W/m² | - |
| 1777829594 | 11.11° C | 49% | 1020.9 hPa | 0 mm | - | 390 W/m² | - |
| 1777829291 | 10.56° C | 49% | 1021.2 hPa | 0 mm | - | 276 W/m² | - |
| 1777828988 | 11.11° C | 48% | 1021.2 hPa | 0 mm | - | 255 W/m² | - |
| 1777828684 | 10.56° C | 48% | 1021.2 hPa | 0 mm | - | 314 W/m² | - |
| 1777828381 | 11.11° C | 49% | 1020.9 hPa | 0 mm | - | 267 W/m² | - |
| 1777828078 | 11.11° C | 48% | 1021.2 hPa | 0 mm | - | 306 W/m² | - |
| 1777827775 | 10.56° C | 47% | 1020.9 hPa | 0 mm | - | 300 W/m² | - |
| 1777827472 | 10.56° C | 46% | 1020.9 hPa | 0 mm | - | 196 W/m² | - |
| 1777827170 | 11.11° C | 49% | 1020.9 hPa | 0 mm | - | 283 W/m² | - |
| 1777826865 | 10.56° C | 49% | 1021.2 hPa | 0 mm | - | 329 W/m² | - |
* Rain latest hour (hover to see other rain measurements)
** Current wind speed in m/s (hover to see current wind gust speed)